Probability
0 0 3 6 6 6 6 3 0 0 0 0 0 0 3 3 3 3 3 3 3 0 0 0 0 0 0 0 0 0 0 0 0 0 0 0 0 0 0 0 0 0 0
0 0 6 6 6 6 6 0 0 0 0 0 0 0 0 3 3 3 3 0 0 0 0 0 0 0 0 0 0 0 0 0 0 0 0 0 0 0 0 0 0 0 0
0 0 3 6 6 6 6 0 0 0 0 0 0 0 0 0 3 0 0 0 0 0 0 0 0 0 0 0 0 0 0 0 0 0 0 0 0 0 0 0 0 0 0
0 0 3 6 6 6 6 0 0 0 0 0 0 0 0 0 0 0 0 0 0 0 0 0 0 0 0 0 0 0 0 0 0 0 0 0 0 0 0 0 0 0 0
0 3 3 10 6 6 3 3 0 0 0 0 0 0 0 0 0 0 0 0 0 0 0 0 0 0 0 0 0 0 0 0 0 0 0 0 0 0 0 0 0 0 0
0 3 10 10 10 6 3 3 0 0 0 0 0 0 0 0 0 0 0 0 0 0 0 0 0 0 0 0 0 0 0 0 0 0 0 0 0 0 0 0 0 0 0
3 3 3 10 10 3 3 3 0 0 0 0 0 0 0 0 0 0 0 0 0 0 0 0 0 0 0 0 0 0 0 0 0 0 0 0 0 0 0 0 0 0 0
3 3 3 6 6 3 3 3 0 0 0 0 0 0 0 0 0 0 0 0 0 0 0 0 0 0 0 0 0 0 0 0 0 0 0 0 0 0 0 0 0 0 0
3 3 3 3 3 3 3 3 0 0 0 0 0 0 0 0 0 0 0 0 0 0 0 0 0 0 0 0 0 0 0 0 0 0 0 0 0 0 0 0 0 0 0
3 3 6 3 3 3 3 0 0 0 0 0 0 0 0 0 0 0 0 0 0 0 0 0 0 0 0 0 0 0 0 0 0 0 0 0 0 0 0 0 0 0 0
0 3 3 3 3 3 3 0 0 0 0 0 0 0 0 0 0 0 0 0 0 0 0 0 0 0 0 0 0 0 0 0 0 0 0 0 0 0 0 0 0 0 0
0 3 3 3 3 3 3 0 0 0 0 0 0 0 0 0 0 0 0 0 0 0 0 0 0 0 0 0 0 0 0 0 0 0 0 0 0 0 0 0 0 0 0
0 0 0 3 3 3 3 0 0 0 0 0 0 0 0 0 0 0 0 0 0 0 0 0 0 0 0 0 0 0 0 0 0 0 0 0 0 0 0 0 0 0 0
0 0 0 0 3 3 0 0 0 0 0 0 0 0 0 0 0 0 0 0 0 0 0 0 0 0 0 0 0 0 0 0 0 0 0 0 0 0 0 0 0 0 0
0 0 0 0 0 0 0 0 0 0 0 0 0 0 0 0 0 0 0 0 0 0 0 0 0 0 0 0 0 0 0 0 0 0 0 0 0 0 0 0 0 0 0
0 0 0 0 0 0 0 0 0 0 0 0 0 0 0 0 0 0 0 0 0 0 0 0 0 0 0 0 0 0 0 0 0 0 0 0 0 0 0 0 0 0 0
0 0 0 0 0 0 0 0 0 0 0 0 0 0 0 0 0 0 0 0 0 0 0 0 0 0 0 0 0 0 0 0 0 0 0 0 0 0 0 0 0 0 0
0 0 0 0 0 0 0 0 0 0 0 0 0 0 0 0 0 0 0 0 0 0 0 0 0 0 0 0 0 0 0 0 0 0 0 0 0 0 0 0 0 0 0
0 0 0 0 0 0 0 0 0 0 0 0 0 0 0 0 0 0 0 0 0 0 0 0 0 0 0 0 0 0 0 0 0 0 0 0 0 0 0 0 0 0 0
0 0 0 0 0 0 0 0 0 0 0 0 0 0 0 0 0 0 0 0 0 0 0 0 0 0 0 0 0 0 0 0 0 0 0 0 0 0 0 0 0 0 0
0 0 0 0 0 0 0 0 0 0 0 0 0 0 0 0 0 0 0 0 0 0 0 0 0 0 0 0 0 0 0 0 0 0 0 0 0 0 0 0 0 0 0
0 0 0 0 0 0 0 0 0 0 0 0 0 0 0 0 0 0 0 0 0 0 0 0 0 0 0 0 0 0 0 0 0 0 0 0 0 0 0 0 0 0 0
0 0 0 0 0 0 0 0 0 0 0 0 0 0 0 0 0 0 0 0 0 0 0 0 0 0 0 0 0 0 0 0 0 0 0 0 0 0 0 0 0 0 0
0 0 0 0 0 0 0 0 0 0 0 0 0 0 0 0 0 0 0 0 0 0 0 0 0 0 0 0 0 0 0 0 0 0 0 0 0 0 0 0 0 0 0
0 0 0 0 0 0 0 0 0 0 0 0 0 0 0 0 0 0 0 0 0 0 0 0 0 0 0 0 0 0 0 0 0 0 0 0 0 0 0 0 0 0 0
0 0 0 0 0 0 0 0 0 0 0 0 0 0 0 0 0 0 0 0 0 0 0 0 0 0 0 0 0 0 0 0 0 0 0 0 0 0 0 0 0 0 0
Height
5871 5873 5874 5876 5877 5878 5880 5881 5882 5883 5884 5884 5885 5885 5885 5886 5886 5886 5886 5885 5885 5884 5884 5883 5882 5882 5881 5880 5879 5878 5877 5876 5875 5874 5873 5872 5870 5869 5868 5866 5865 5863 5862
5869 5870 5872 5874 5875 5876 5878 5879 5880 5881 5882 5883 5883 5884 5884 5884 5884 5884 5884 5884 5883 5883 5882 5881 5881 5880 5879 5878 5877 5876 5876 5875 5873 5872 5871 5870 5868 5867 5865 5864 5862 5861 5859
5866 5868 5869 5871 5873 5874 5875 5877 5878 5879 5880 5880 5881 5882 5882 5883 5883 5883 5882 5882 5882 5881 5880 5880 5879 5878 5877 5877 5876 5875 5874 5873 5871 5870 5869 5867 5866 5865 5863 5861 5860 5858 5856
5863 5865 5866 5868 5870 5872 5873 5874 5875 5877 5877 5878 5879 5880 5880 5881 5881 5881 5881 5880 5880 5879 5878 5878 5877 5877 5876 5875 5874 5873 5872 5871 5869 5868 5866 5865 5864 5862 5861 5859 5857 5855 5853
5859 5861 5863 5865 5867 5869 5870 5872 5873 5874 5875 5876 5877 5878 5878 5879 5879 5879 5879 5878 5878 5877 5877 5876 5875 5875 5874 5873 5872 5871 5870 5868 5867 5865 5864 5862 5861 5859 5858 5856 5854 5852 5850
5855 5858 5860 5862 5864 5865 5867 5869 5870 5871 5873 5874 5875 5875 5876 5876 5876 5877 5876 5876 5876 5875 5875 5874 5874 5873 5872 5871 5870 5869 5867 5866 5864 5863 5861 5860 5858 5856 5854 5852 5850 5848 5846
5851 5854 5856 5858 5860 5862 5864 5865 5867 5868 5870 5871 5872 5873 5873 5874 5874 5874 5874 5874 5874 5873 5873 5872 5871 5870 5870 5869 5867 5866 5865 5863 5862 5860 5858 5856 5855 5853 5851 5848 5846 5844 5842
5847 5850 5852 5854 5856 5858 5860 5862 5864 5865 5867 5868 5869 5870 5871 5871 5872 5872 5872 5872 5871 5871 5870 5870 5869 5868 5867 5866 5865 5863 5862 5860 5859 5857 5855 5853 5851 5849 5846 5844 5842 5839 5837
5842 5845 5848 5850 5852 5854 5856 5858 5860 5862 5863 5865 5866 5867 5868 5868 5869 5869 5869 5869 5869 5869 5868 5867 5866 5865 5864 5863 5862 5861 5859 5857 5855 5853 5851 5849 5847 5845 5842 5840 5837 5835 5832
5838 5841 5843 5846 5848 5850 5852 5854 5856 5858 5860 5861 5862 5863 5865 5865 5866 5866 5866 5866 5866 5866 5865 5865 5864 5863 5862 5860 5859 5857 5856 5854 5852 5849 5847 5845 5843 5840 5837 5835 5832 5829 5826
5833 5836 5839 5841 5844 5846 5848 5850 5852 5854 5856 5858 5859 5860 5861 5862 5863 5863 5864 5864 5863 5863 5863 5862 5861 5860 5858 5857 5855 5854 5852 5850 5848 5845 5843 5840 5838 5835 5832 5830 5827 5824 5821
5828 5831 5834 5836 5839 5841 5844 5846 5848 5850 5852 5854 5855 5857 5858 5859 5860 5860 5860 5860 5860 5860 5859 5858 5857 5856 5855 5853 5852 5850 5848 5846 5843 5841 5838 5836 5833 5830 5827 5824 5821 5818 5815
5823 5826 5829 5831 5834 5837 5840 5842 5844 5846 5848 5850 5852 5853 5855 5856 5856 5857 5857 5857 5857 5856 5856 5855 5854 5853 5851 5850 5848 5846 5844 5841 5839 5836 5834 5831 5828 5825 5822 5819 5816 5813 5809
5817 5820 5823 5826 5829 5832 5835 5837 5840 5842 5844 5846 5848 5850 5851 5852 5853 5853 5853 5853 5853 5853 5852 5851 5850 5849 5847 5845 5844 5842 5839 5837 5834 5831 5829 5826 5823 5820 5816 5813 5810 5807 5803
5811 5815 5818 5821 5824 5827 5830 5833 5835 5838 5840 5842 5844 5846 5847 5848 5849 5849 5849 5849 5849 5849 5848 5847 5846 5844 5843 5841 5839 5837 5834 5832 5829 5826 5823 5820 5817 5814 5811 5808 5804 5801 5797
5806 5809 5812 5815 5819 5822 5825 5828 5831 5833 5836 5838 5840 5841 5843 5844 5845 5845 5845 5845 5845 5844 5844 5843 5841 5840 5838 5836 5834 5832 5829 5827 5824 5821 5818 5815 5812 5808 5805 5802 5798 5794 5791
5799 5803 5807 5810 5813 5817 5820 5823 5826 5829 5831 5833 5835 5837 5838 5840 5840 5841 5841 5841 5841 5840 5839 5838 5837 5835 5833 5831 5829 5826 5824 5821 5818 5815 5812 5809 5806 5802 5799 5795 5792 5788 5784
5793 5797 5801 5804 5808 5811 5815 5818 5821 5824 5826 5828 5830 5832 5834 5835 5836 5836 5836 5836 5836 5835 5834 5833 5831 5830 5828 5826 5823 5821 5818 5815 5812 5809 5806 5803 5800 5796 5793 5789 5785 5781 5777
5786 5791 5795 5799 5802 5806 5809 5813 5816 5819 5821 5823 5825 5827 5828 5830 5830 5831 5831 5831 5831 5830 5829 5828 5826 5824 5822 5820 5818 5815 5812 5809 5807 5803 5800 5797 5793 5790 5786 5782 5778 5774 5770
5780 5784 5788 5792 5796 5800 5804 5807 5811 5813 5815 5818 5820 5821 5823 5824 5825 5825 5826 5826 5825 5824 5823 5822 5820 5818 5816 5814 5812 5809 5806 5803 5800 5797 5794 5790 5787 5783 5779 5775 5771 5767 5763
5772 5777 5782 5786 5790 5794 5798 5802 5805 5807 5809 5812 5814 5815 5817 5818 5819 5819 5820 5820 5819 5818 5817 5816 5814 5812 5810 5808 5805 5803 5800 5797 5794 5791 5787 5784 5780 5777 5773 5768 5764 5760 5756
5765 5770 5775 5779 5784 5788 5792 5795 5798 5800 5803 5806 5808 5809 5811 5812 5812 5813 5813 5813 5813 5812 5811 5809 5808 5806 5804 5801 5799 5796 5794 5791 5787 5784 5781 5777 5774 5770 5766 5761 5757 5753 5748
5757 5763 5768 5772 5777 5781 5784 5787 5791 5794 5797 5800 5801 5802 5803 5804 5806 5806 5807 5806 5806 5805 5804 5802 5801 5799 5797 5795 5792 5790 5787 5784 5781 5778 5774 5770 5766 5763 5758 5754 5750 5745 5741
5750 5755 5759 5764 5768 5773 5776 5780 5784 5787 5790 5792 5793 5795 5796 5797 5798 5799 5799 5799 5799 5798 5797 5795 5794 5792 5790 5788 5785 5782 5780 5777 5774 5771 5767 5763 5759 5755 5751 5747 5742 5738 5734
5741 5746 5751 5755 5760 5764 5768 5772 5776 5780 5782 5784 5786 5788 5789 5790 5791 5791 5792 5792 5791 5790 5789 5788 5786 5785 5783 5780 5778 5775 5772 5769 5766 5763 5760 5756 5752 5748 5744 5739 5735 5730 5726
5731 5737 5742 5747 5752 5756 5760 5764 5768 5772 5774 5776 5778 5780 5781 5782 5783 5783 5784 5784 5783 5782 5781 5780 5779 5777 5775 5773 5770 5768 5765 5762 5759 5755 5752 5748 5744 5740 5736 5731 5727 5722 5718
Wind_Speed
20 19 19 18 17 16 16 15 14 13 12 11 10 9 8 8 7 7 6 6 5 5 6 6 6 7 7 8 8 9 9 10 10 11 12 12 13 13 14 15 16 16 17
21 20 20 19 18 17 16 15 15 14 13 12 11 10 9 8 8 7 7 6 6 7 7 7 7 7 8 8 9 9 9 10 11 12 12 13 14 15 16 16 17 18 19
22 22 21 20 19 18 17 16 16 15 14 13 12 11 10 9 9 8 8 7 7 7 7 7 7 7 8 9 9 10 10 11 12 13 14 15 15 16 17 18 19 19 20
23 22 21 21 20 19 18 17 16 15 14 13 12 11 11 10 10 9 9 8 8 7 7 7 8 8 9 10 10 11 12 12 13 14 15 16 17 17 18 19 20 21 22
25 24 22 21 20 20 19 18 17 16 15 14 13 12 11 11 10 10 9 9 8 8 7 8 8 9 10 10 11 12 13 14 15 16 17 17 18 19 20 21 22 23 23
26 25 23 22 21 21 20 19 18 17 16 15 14 13 12 12 11 10 9 9 8 8 8 9 9 10 11 12 13 13 14 15 16 17 18 18 19 20 21 22 23 24 25
27 26 25 24 23 22 21 20 19 18 17 15 14 14 13 12 11 10 10 9 8 9 9 10 10 11 12 13 14 15 16 16 17 18 19 20 21 22 23 24 25 26 27
28 27 26 25 24 23 22 21 20 19 18 17 16 15 14 13 12 11 10 10 10 10 10 11 11 12 12 13 14 15 17 17 18 19 20 21 22 24 25 25 26 27 28
28 28 27 26 24 23 23 22 21 20 19 18 17 16 15 13 12 12 11 11 10 10 11 11 12 12 13 14 15 16 17 18 20 21 22 23 24 25 26 27 28 29 30
29 28 27 26 25 24 24 23 22 20 19 18 17 16 15 14 13 12 12 11 11 11 12 12 13 14 15 16 17 18 19 20 21 22 23 24 25 26 27 28 29 30 31
30 29 28 27 26 25 25 23 22 21 20 19 18 16 16 14 13 13 12 12 12 13 13 13 14 15 16 17 19 20 21 21 22 23 25 26 27 28 29 30 30 31 32
30 30 29 28 27 26 25 24 23 22 21 20 18 17 16 16 15 14 14 13 13 14 14 14 15 16 18 19 20 21 22 23 24 25 26 27 28 29 30 31 31 32 33
31 30 29 28 28 27 26 25 24 23 21 20 19 18 17 17 16 15 15 15 14 15 15 16 17 18 19 21 22 23 24 25 26 26 27 28 29 30 31 31 32 33 33
32 31 30 29 29 28 27 26 25 23 22 21 20 19 18 18 17 16 16 16 16 16 17 17 18 19 21 22 23 24 25 26 27 28 29 29 30 31 32 32 33 34 34
33 31 30 30 30 29 28 26 25 24 23 22 21 20 19 19 18 17 17 17 17 18 18 19 20 21 22 23 24 25 26 27 28 29 30 30 31 32 32 33 34 35 35
33 32 31 31 30 29 28 27 26 25 24 23 22 21 20 20 19 18 18 18 18 19 20 21 22 23 24 25 26 26 27 28 29 30 30 31 32 33 33 34 35 35 36
35 33 32 31 31 30 29 28 27 26 25 24 23 22 22 21 20 20 19 19 20 21 22 23 24 25 25 26 27 28 29 29 30 31 31 32 33 33 34 35 36 36 37
36 34 33 32 32 31 30 29 28 27 26 25 24 23 23 22 21 21 21 21 22 23 24 25 25 26 27 28 29 30 30 31 31 32 32 33 33 34 35 36 37 37 38
37 36 34 34 33 32 31 30 29 28 27 26 26 25 24 23 23 23 23 23 23 24 25 26 27 28 28 29 30 31 31 32 32 33 33 34 34 35 36 37 37 38 38
39 37 36 35 35 34 33 31 30 29 28 27 27 26 25 25 25 25 25 25 25 26 27 27 28 29 30 31 31 32 33 33 33 34 34 35 35 36 37 38 38 39 39
40 39 38 37 36 35 33 32 31 30 30 29 28 27 27 27 27 27 27 27 27 28 28 29 30 30 31 32 32 33 34 34 34 35 35 36 36 37 38 38 39 39 40
42 41 40 39 38 36 35 34 34 33 32 31 29 29 29 29 29 29 28 28 29 30 31 31 32 32 33 33 34 34 35 35 35 36 36 36 37 38 38 39 40 40 40
44 43 41 40 39 38 37 37 36 34 33 31 31 31 31 31 30 30 30 31 32 32 33 33 33 33 34 34 35 35 36 36 36 36 36 37 38 38 39 40 40 40 40
45 44 43 42 41 40 39 38 37 35 33 33 34 34 33 33 33 33 33 33 33 34 34 34 35 35 35 35 36 36 37 37 37 36 37 38 39 39 40 40 40 40 40
47 46 45 44 43 42 41 39 38 37 36 36 36 35 35 35 36 36 35 35 35 36 36 36 36 36 36 37 37 37 37 37 37 37 37 38 39 39 40 40 40 41 41
49 48 47 45 44 43 42 41 40 38 38 38 38 38 38 38 37 37 37 37 37 37 38 38 38 38 38 38 38 38 38 38 38 38 38 39 39 40 40 40 41 42 42
Wind_Direction
219 219 219 221 222 222 222 223 226 229 233 240 243 246 249 250 253 256 262 268 272 277 283 291 296 299 303 305 307 307 307 307 308 308 308 308 308 307 306 305 304 303 301
222 221 221 222 224 225 225 227 230 234 238 242 244 247 249 252 256 258 264 266 273 278 284 291 297 302 305 307 307 307 307 308 309 309 309 308 308 307 306 305 304 303 302
224 223 224 225 225 227 228 229 232 236 238 240 242 244 247 252 255 260 263 267 274 281 287 293 299 304 306 308 308 309 308 308 308 308 307 307 306 305 305 304 303 303 302
226 226 227 227 228 228 229 231 233 235 237 239 241 243 247 252 257 261 263 268 274 280 286 292 298 302 305 306 307 308 307 307 306 306 306 305 305 304 304 304 303 303 302
227 227 228 230 231 231 232 234 235 235 236 239 241 243 248 253 258 261 264 268 272 278 284 290 296 301 304 305 307 307 307 307 307 306 305 306 305 304 304 303 303 302 301
227 228 230 231 232 233 235 235 234 235 237 239 240 244 249 254 257 259 261 266 270 278 284 290 296 301 303 305 306 308 308 308 308 307 307 306 305 304 303 303 303 302 302
228 229 230 232 233 234 234 233 233 235 237 238 240 246 250 251 251 253 258 263 271 280 285 291 296 299 302 304 307 308 308 308 307 307 306 305 304 304 304 304 304 303 302
227 229 231 232 233 234 232 232 232 233 235 238 242 246 247 246 248 251 257 263 271 278 284 289 294 297 301 304 306 307 308 308 308 307 306 306 305 304 304 304 304 304 303
226 227 229 231 233 233 232 231 231 233 235 238 242 243 243 243 245 251 257 262 269 275 282 287 292 296 300 303 305 307 308 308 308 307 306 306 306 305 305 305 304 304 303
225 226 228 231 233 233 231 230 232 233 235 238 240 239 239 241 245 251 256 261 267 273 280 286 290 295 299 302 305 307 308 308 307 307 307 306 306 306 305 304 304 304 303
225 226 229 231 232 231 230 230 231 233 235 237 237 235 236 240 245 250 255 261 267 274 280 286 290 295 298 301 304 306 306 307 307 308 307 307 306 306 306 305 304 304 304
226 227 228 230 230 229 228 229 230 233 235 235 234 234 236 240 245 250 255 261 268 274 280 285 291 295 298 301 303 304 305 306 307 307 307 307 307 306 306 306 305 305 304
226 227 229 229 229 228 227 228 230 233 233 232 232 234 237 241 246 251 256 262 268 274 279 285 291 295 298 301 302 304 305 306 306 307 307 307 307 307 307 306 306 306 305
226 227 228 228 227 227 227 228 230 231 230 230 232 235 238 242 247 252 258 264 270 275 280 286 291 296 298 301 302 304 305 305 306 306 306 306 307 307 306 306 306 306 306
225 226 227 226 226 226 226 226 227 228 228 229 232 236 239 243 248 254 260 267 272 277 282 287 292 296 298 300 301 302 303 304 305 306 306 306 306 307 306 306 306 307 307
224 225 225 224 223 222 222 223 224 226 228 231 234 237 240 244 250 256 262 268 273 278 283 288 292 296 298 300 301 302 303 304 305 306 306 306 306 306 306 306 306 306 307
223 223 223 222 220 220 220 222 224 227 229 232 235 239 242 247 253 258 264 269 274 278 282 287 291 294 297 299 301 302 303 304 304 305 305 305 306 306 306 306 306 306 307
221 222 221 220 219 219 221 223 225 228 231 233 236 240 245 249 254 260 265 270 275 279 283 287 290 294 296 298 300 302 302 303 304 305 305 306 306 307 307 306 306 306 307
220 220 219 219 219 220 222 224 227 230 232 235 238 242 246 251 257 261 266 271 275 280 284 288 291 294 295 297 299 300 302 303 303 304 305 305 306 307 307 306 306 306 307
220 219 219 219 220 222 223 226 229 231 233 236 239 242 247 253 259 263 267 272 276 281 285 288 291 293 295 297 298 299 301 302 303 304 304 304 306 307 307 306 306 307 308
220 220 221 221 223 224 226 228 230 232 234 237 241 245 250 255 260 265 269 273 277 281 285 287 289 291 294 296 297 299 300 301 302 303 303 304 305 306 306 306 306 307 308
221 222 222 223 225 226 228 229 231 233 236 240 244 248 253 257 261 266 270 274 277 280 283 285 288 290 293 295 297 298 299 300 301 303 303 304 305 306 306 306 307 307 307
221 222 224 225 226 228 229 231 233 236 239 242 246 250 253 257 262 266 270 273 277 280 282 285 287 289 292 294 296 297 298 299 301 302 302 303 305 305 305 307 307 307 307
223 224 224 225 227 228 230 232 235 238 240 243 247 250 255 259 263 267 270 274 277 279 281 283 286 288 290 292 294 296 297 298 299 300 301 302 304 305 305 306 307 307 307
224 225 225 226 228 230 232 234 236 239 242 245 249 253 257 260 264 268 271 273 276 278 280 282 285 288 290 291 293 295 296 297 298 298 300 302 303 304 304 305 306 306 306
225 226 227 228 229 231 233 236 238 241 244 248 251 254 258 261 264 267 270 272 274 277 279 282 284 286 288 290 292 293 294 295 296 298 299 301 302 303 304 304 305 306 306